Location: Newark
(42.7133°N, 87.7910°W)
Time: 00:04:36
(UTC+00:00)

Envisat - Pass Details

Date: 26 August 2019
Orbit: 764 x 766 km, 98.1° (Epoch: 21 September)

Event Time Altitude Azimuth Distance (km) Brightness Sun altitude
Rises 01:28:40 0° 214° (SW) 3,220 6.4 -9.7°
Reaches altitude 10° 01:32:07 10° 240° (WSW) 2,301 6.0 -10.2°
Maximum altitude 01:34:44 14° 271° (W) 2,036 6.3 -10.7°
Drops below altitude 10° 01:37:20 10° 302° (WNW) 2,309 7.0 -11.1°
Sets 01:40:51 0° 327° (NNW) 3,241 7.3 -11.7°
